AirNav   Everest Fuels
 
 246 users online  

K77 Freedom Municipal Airport
Freedom, Oklahoma, USA

GOING TO FREEDOM?


FAA INFORMATION EFFECTIVE 10 OCTOBER 2019

Location

FAA Identifier: K77
Lat/Long: 36-45-30.5800N 099-06-07.2400W
36-45.509667N 099-06.120667W
36.7584944,-99.1020111
(estimated)
Elevation: 1517 ft. / 462.4 m (surveyed)
Variation: 08E (1985)
From city: 1 mile SE of FREEDOM, OK
Time zone: UTC -5 (UTC -6 during Standard Time)
Zip code: 73842

Airport Operations

Airport use: Open to the public
Activation date: 08/1980
Control tower: no
ARTCC: KANSAS CITY CENTER
FSS: MC ALESTER FLIGHT SERVICE STATION
NOTAMs facility: MLC (NOTAM-D service available)
Attendance: UNATNDD
Wind indicator: no
Segmented circle: no

Airport Communications

CTAF: 122.9

Airport Services

Airframe service: NONE
Powerplant service: NONE
Bottled oxygen: NONE
Bulk oxygen: NONE

Runway Information

Runway 12/30

Dimensions: 3000 x 35 ft. / 914 x 11 m
Surface: asphalt/L
RY EDGES/THLDS UNIDENTIFIABLE. FIRST 150 FT OF RY 12 END AND FIRST 400 FT OF RY 30 END COVERED IN GRASS. RY SFC ROUGH AND UNEVEN. BROKEN ASPH CHUNKS, ROCKS, AND TALL GRASS ON ENTIRE SURFACE.
RUNWAY 12  RUNWAY 30
Traffic pattern: leftleft
Obstructions: 40 ft. trees, 246 ft. from runway, 65 ft. left of centerline, 1:1 slope to clear
15 FT TREES 190 FT FM THLD 90 FT L OF CNTRLN.
30 ft. trees, 606 ft. from runway, 13:1 slope to clear

Airport Ownership and Management from official FAA records

Ownership: Publicly-owned
Owner: TOWN OF FREEDOM
1149 MAIN ST
FREEDOM, OK 73842
Phone 580-621-3302
Manager: SHAD BRACKIN
P. O. BOX 173
FREEDOM, OK 73842
Phone (580) 621-3302
MAYOR

Airport Operational Statistics

Aircraft operations: 30/year *
100% transient general aviation
* for 12-month period ending 16 November 2017

Additional Remarks

FOR CD CTC KANSAS CITY ARTCC AT 913-254-8508.

Instrument Procedures

There are no published instrument procedures at K77.

Some nearby airports with instrument procedures:

KMDF - Mooreland Municipal Airport (17 nm S)
KAVK - Alva Regional Airport (21 nm E)
KBFK - Buffalo Municipal Airport (26 nm W)
KWWR - West Woodward Airport (28 nm SW)
3K8 - Comanche County Airport (30 nm N)
 
Loc | Ops | Rwys | IFR | FBO | Links
Com | Nav | Svcs | Stats | Notes

AirBoss

 
Area around K77 (Freedom Municipal Airport)
 
Road maps at: MapQuest Bing Google
 
Aerial photo
No photo
 
Sectional chart

 
Airport distance calculator
Flying to Freedom Municipal Airport? Find the distance to fly.

From to K77

Sunrise and sunset
Times for 14-Oct-2019
 Local
(UTC-5)
 Zulu
(UTC)
Morning civil twilight07:1812:18
Sunrise07:4412:44
Sunset19:0100:01
Evening civil twilight19:2700:27

Current date and time
Zulu (UTC)  14-Oct-2019 09:32:19
Local (UTC-5)  14-Oct-2019 04:32:19
 
METAR
KAVK 
21nm E 
140915Z AUTO 09006KT 10SM CLR 10/07 A2994 RMK AO2
KWWR 
22nm SW 
140915Z AUTO 11003KT 10SM CLR 09/06 A2995 RMK AO2
KP28 
41nm NE 
140856Z AUTO 11005KT 11/07 A2995 RMK AO1 SLP135 T01110067 58007
TAF
KWWR 
22nm SW 
140520Z 1406/1506 15007KT P6SM SKC FM141600 19013KT P6SM SKC
NOTAMs
Click for the latest NOTAMs
NOTAMs are issued by the DoD/FAA and will open in a separate window not controlled by AirNav.

 

 
 

Would you like to see your business listed on this page?

 If your business provides an interesting product or service to pilots, flight crews, aircraft, or users of the Freedom Municipal Airport, you should consider listing it here.  To start the listing process, click on the button below
 
Add a business
 

Other Pages about Freedom Municipal Airport

Update a link
 
Copyright © AirNav, LLC. All rights reserved. Privacy Policy  Contact